Location: Bismarck
(46.7731°N, 100.8200°W)
Time: 13:08:20
(UTC-05:00)

Daily predictions for brighter satellites

Satellite Brightness Start Highest point End
(mag) Time Altitude Azimuth Time Altitude Azimuth Time Altitude Azimuth
Thor Agena Rocket 4.0 19:55:44 10° NNE 20:00:43 41° E 20:05:35 10° S
ATLAS CENTAUR R/B 4.2 19:44:54 10° NW 20:03:10 80° SW 20:08:52 10° SE
Cosmos 1340 Rocket 3.7 19:59:37 10° NNW 20:03:38 57° W 20:07:38 10° S
USA 234 4.1 19:57:43 10° SSE 20:04:05 53° SW 20:10:30 10° WNW
Cosmos 2058 Rocket 3.0 20:02:13 10° S 20:06:31 65° E 20:10:54 10° NNE
Resurs 01 Rocket 3.0 20:03:24 10° ESE 20:06:36 20° ENE 20:09:49 10° NNE
Cosmos 1814 Rocket 4.2 20:05:47 10° SSW 20:10:56 79° WNW 20:16:05 10° NNE
Cosmos 372 Rocket 4.3 20:08:43 10° NNW 20:13:51 50° ENE 20:18:56 10° SE
Meteor 2-13 Rocket 4.4 20:08:17 10° S 20:14:20 76° E 20:20:25 10° NNE
SL-08 ROCKET BODY 4.3 20:08:36 10° S 20:14:28 74° E 20:20:29 10° NNE
Cosmos 1125 Rocket 3.6 20:13:47 10° NNW 20:19:04 61° ENE 20:24:19 10° SE
Cosmos 1697 Rocket 4.3 20:15:21 10° N 20:19:18 19° NE 20:22:57 11° E
Cosmos 1980 Rocket 4.1 20:18:29 10° N 20:21:18 14° NE 20:24:05 10° ENE
Cosmos 1356 4.3 20:18:09 10° N 20:21:18 30° ENE 20:24:26 10° SE
Cosmos 2184 Rocket 4.1 20:15:44 10° S 20:21:55 59° E 20:28:10 10° NNE
Meteor 1-24 Rocket 3.8 20:16:17 10° N 20:22:17 74° ENE 20:28:03 10° SSE
Cosmos 1656 Rocket 4.5 20:20:39 10° NW 20:26:10 55° WSW 20:31:35 10° S
USA 186 3.4 20:27:31 11° NE 20:27:31 11° NE 20:27:45 10° NE
Geosat 4.0 20:23:06 10° SSE 20:28:08 89° WSW 20:33:12 10° NNW
Envisat 3.9 20:24:25 10° ESE 20:28:46 29° ENE 20:33:05 10° N
FENGYUN 3A 4.1 20:29:11 10° S 20:34:30 66° WSW 20:39:53 10° NNW
ATLAS 2AS CENTAUR R/B 3.6 20:26:57 10° NW 20:34:40 44° NE 20:40:36 16° ESE
Cosmos 1544 3.0 20:34:11 10° S 20:37:43 58° E 20:41:18 10° NNE
H-2A R/B 2.6 20:34:01 10° SSE 20:37:45 85° ENE 20:41:34 10° NNW
Cosmos 2327 Rocket 4.4 20:33:17 10° S 20:39:20 72° E 20:45:25 10° NNE
SJ-6B 2.7 20:35:54 10° SSE 20:39:52 80° ENE 20:43:47 10° N
Cosmos 841 Rocket 3.9 20:37:18 10° SSW 20:42:24 65° WNW 20:47:33 10° NNE
COSMO-SKYMED 1 4.4 20:38:47 10° N 20:42:46 35° WNW 20:46:42 10° SW
BREEZE M DEB (TANK) 4.2 20:37:15 10° WNW 20:45:08 46° SW 20:47:45 14° SSE
Cosmos 1953 3.1 20:41:56 10° SSE 20:45:26 29° E 20:48:59 10° NNE
SL-27 R/B 2.8 20:47:01 10° S 20:50:26 42° ESE 20:53:56 10° NE
SL-16 R/B 4.4 20:50:12 10° NNE 20:50:30 10° NNE 20:50:49 10° NNE
Cosmos 540 Rocket 3.3 20:46:06 10° SSW 20:51:12 80° ESE 20:56:20 10° NNE
Cosmos 1076 Rocket 4.3 20:50:02 10° N 20:53:56 31° ENE 20:55:14 26° ESE
Cosmos 292 Rocket 4.1 20:50:33 10° S 20:55:04 41° ESE 20:59:39 10° NE
SJ 16-02 1.3 20:53:33 10° NNW 20:57:59 88° ENE 21:02:00 12° SSE
HJ-1C 3.8 20:55:10 10° S 20:58:29 63° WSW 21:01:51 10° NNW
Cosmos 1674 2.8 20:55:20 10° N 20:58:59 49° ENE 21:00:40 27° SE
Cosmos 1766 4.0 21:01:34 10° SSW 21:05:25 55° WNW 21:09:16 10° N
COSMOS 2406 3.5 21:00:11 10° SSW 21:05:53 73° WNW 21:11:40 10° NNE
USA 267 4.3 21:04:09 10° NE 21:10:07 40° N 21:16:07 10° WNW
Cosmos 2369 3.7 21:07:35 10° NNW 21:13:14 63° ENE 21:16:07 29° SE
ISS -3.6 21:10:14 10° SW 21:13:15 50° SSE 21:13:15 50° SSE
Resurs 1-3 3.5 21:10:38 19° SSE 21:13:48 80° ENE 21:18:12 10° NNW
Centaur D AC-29 4.0 21:20:47 10° SSW 21:21:35 10° SSW 21:22:18 10° SSW
Cosmos 1733 3.6 21:25:17 45° NE 21:25:17 45° NE 21:28:16 10° NNE
Cosmos 2154 Rocket 4.0 21:21:15 10° S 21:27:29 83° W 21:33:49 10° N
Meteor 1-21 Rocket 4.2 21:23:58 10° NNW 21:29:44 86° W 21:34:10 17° S
Cosmos 1408 Rocket 4.1 21:26:05 10° N 21:29:40 39° ENE 21:29:40 39° ENE
BREEZE-M DEB (TANK) 3.3 21:29:03 10° WNW 21:30:07 25° W 21:30:07 25° W
Cosmos 1758 3.5 21:27:05 10° SSW 21:31:05 72° W 21:35:05 10° N
MOS 1-B Rocket 3.9 21:27:38 12° SSE 21:33:18 80° WSW 21:38:57 10° NNW
Cosmos 1812 Rocket 4.5 21:30:03 10° SSW 21:34:23 50° WNW 21:38:46 10° N
Spot 2 Rocket 3.6 21:31:12 19° S 21:34:53 74° WSW 21:39:57 10° NNW
Cosmos 1805 4.5 21:31:54 10° SSW 21:35:36 42° WNW 21:39:21 10° N
FALCON 9 R/B 3.6 21:33:12 10° SW 21:36:10 21° S 21:36:10 21° S
SJ-11-01 4.2 21:37:38 53° SE 21:38:40 75° ENE 21:43:25 10° N
GP-B 3.8 21:35:51 10° N 21:40:12 54° W 21:44:31 10° SSW
Cosmos 2082 Rocket 3.8 21:45:39 20° NE 21:45:39 20° NE 21:47:30 10° NE
Resurs 01 Rocket 2.4 21:39:31 17° S 21:42:45 49° W 21:47:04 10° NNW
Cosmos 2341 Rocket 3.9 21:36:36 10° S 21:42:49 88° W 21:49:06 10° N
KORONAS-FOTON 4.0 21:40:01 10° NNW 21:43:47 68° W 21:44:08 63° SW
Meteor 2-21 4.3 21:38:14 12° S 21:43:50 68° E 21:49:55 10° NNE
Helios 1A 3.8 21:46:55 39° NNE 21:46:55 39° NNE 21:49:56 10° N
Cosmos 2278 3.7 21:41:19 10° NNW 21:47:00 78° WSW 21:49:05 41° SSE
Cosmos 1939 Rocket 2.8 21:48:28 78° W 21:48:28 78° W 21:52:25 10° NNW
Cosmos 1959 Rocket 4.4 21:49:52 48° SE 21:51:18 59° E 21:57:29 10° NNE
ERS-1 Rocket 3.6 21:52:22 39° NE 21:52:22 39° NE 21:56:23 10° N
Cosmos 2084 Rocket 4.0 21:50:45 10° NW 21:53:38 45° N 21:53:38 45° N
Meteor 2-15 Rocket 4.3 21:48:34 10° N 21:54:41 78° E 21:56:20 51° SSE
Cosmos 1656 3.7 21:50:30 10° NNW 21:56:12 79° WSW 21:57:35 53° S
Cosmos 1470 3.2 21:57:01 59° NNW 21:57:01 59° NNW 22:00:26 10° N
Cosmos 2322 Rocket 3.7 21:52:38 10° N 21:56:45 22° NE 21:56:45 22° NE
Cosmos 2366 rocket 3.9 21:59:05 58° SE 21:59:49 62° E 22:06:01 10° NNE
Cosmos 1766 Rocket 3.7 21:55:48 10° N 21:59:38 68° NNW 21:59:38 68° NNW
Cosmos 2360 Rocket 4.3 22:01:13 10° N 22:03:52 13° NE 22:04:07 13° NE
Cosmos 1697 Rocket 2.5 21:58:27 10° NNW 22:04:10 85° ENE 22:04:42 74° SE
Cosmos 1818 3.7 21:59:47 10° NNW 22:05:09 61° NE 22:05:09 61° NE
Cosmos 2218 Rocket 3.8 22:04:50 53° SSE 22:06:21 76° E 22:12:33 10° NNE
Cosmos 1980 Rocket 2.4 22:01:01 10° NNW 22:06:24 56° NE 22:06:24 56° NE
YAOGAN 6 4.1 22:08:17 35° NW 22:08:17 35° NW 22:10:35 10° NNW
Envisat 4.1 22:04:28 20° SSW 22:07:37 41° W 22:12:26 10° NNW
Cosmos 2285 Rocket 4.0 22:03:42 10° SSW 22:10:09 83° WNW 22:16:39 10° NNE
BREEZE M DEB (TANK) 4.3 21:54:03 10° W 22:12:18 73° N 22:13:46 53° ENE
SL-08 R/B 4.3 22:15:50 74° SE 22:16:14 77° E 22:22:30 10° NNE
Meteor 2-16 Rocket 4.2 22:19:35 82° SE 22:19:49 84° E 22:25:57 10° N
MetOp-A 4.4 22:24:47 60° N 22:24:47 60° N 22:29:13 10° NNW
ATLAS 2AS CENTAUR R/B 3.2 22:18:13 10° NW 22:26:07 63° WSW 22:28:02 49° S
SL-8 Rocket 4.2 22:23:07 26° SSW 22:26:44 66° W 22:32:54 10° N
ARGOS 3.6 22:28:15 52° NNE 22:28:15 52° NNE 22:32:29 10° N
Cosmos 1727 Rocket 3.9 22:22:44 10° N 22:29:05 86° W 22:29:23 82° SSW
H-2A R/B 3.3 22:37:48 32° N 22:37:48 32° N 22:40:39 10° N
SL-16 R/B 3.4 22:31:08 10° NNW 22:34:59 32° NNE 22:34:59 32° NNE
NOSS 3-4 (A) 4.0 22:31:36 10° NW 22:38:23 56° NE 22:38:25 56° NE
NOSS 3-4 (C) 4.0 22:31:42 10° NW 22:38:29 56° NE 22:38:31 56° NE
USA 267 4.2 22:50:55 35° NE 22:52:16 39° N 22:58:12 10° NW
Cosmos 1833 Rocket 4.0 23:01:48 34° N 23:01:48 34° N 23:05:09 10° NNE
BREEZE-M DEB (TANK) 4.3 23:09:14 10° WNW 23:18:49 51° WNW 23:18:49 51° WNW
Cosmos 2082 Rocket 3.7 23:27:22 32° NNW 23:27:22 32° NNW 23:31:33 10° NNE
Terra 4.4 23:35:06 16° N 23:35:06 16° N 23:36:07 10° N
Cosmos 2322 Rocket 3.9 23:36:00 10° NNW 23:38:34 28° NNW 23:38:34 28° NNW
Cosmos 2360 Rocket 4.2 23:43:41 10° NNW 23:45:52 23° N 23:45:52 23° N
Cosmos 1980 Rocket 4.3 23:45:42 10° NW 23:48:11 20° WNW 23:48:11 20° WNW
